Terminal Aerodrome Forecast
Issued by NWS Dodge City, KS

Home | Current Version | Previous Version | Text Only | Print | Product List | Glossary On
Versions: 1 2 3 4 5 6 7 8 9 10 11 12 13 14 15 16 17 18 19 20 21 22 23 24 25 26 27 28 29 30 31 32 33 34 35 36 37
000
FTUS43 KDDC 231354 AAH
TAFDDC
TAF AMD
KDDC 231354Z 2314/2412 36009KT 2SM BR FEW002
     FM231500 35027G37KT 5SM -RASN BKN020
     FM232100 33025G35KT P6SM SCT060 BKN150
     FM240200 31015G23KT P6SM SKC=

USA.gov is the U.S. government's official web portal to all federal, state and local government web resources and services.